Location: Gravenhurst
(44.9196°N, 79.3742°W)
Time: 05:52:35
(UTC-04:00)

ISS - Visible Passes

Search period start: 22 March 2019 00:00
Search period end: 01 April 2019 00:00
Orbit: 406 x 411 km, 51.6° (Epoch: 22 March)

Date Brightness Start Highest point End Pass type
(mag) Time Alt. Az. Time Alt. Az. Time Alt. Az.
22 Mar -3.6 20:47:28 10° SW 20:50:40 50° SE 20:51:53 31° E visible
22 Mar -0.6 22:24:15 10° W 22:24:40 13° W 22:24:40 13° W visible
23 Mar -3.0 21:32:58 10° W 21:36:11 49° NNW 21:36:16 48° NNW visible
24 Mar -3.7 20:41:48 10° WSW 20:45:04 75° NNW 20:47:42 15° ENE visible
24 Mar -1.0 22:19:09 10° WNW 22:20:28 19° NW 22:20:28 19° NW visible
25 Mar -2.2 21:27:47 10° W 21:30:47 31° NNW 21:31:44 26° NNE visible
26 Mar -2.7 20:36:26 10° W 20:39:35 41° NNW 20:42:44 10° NE visible
26 Mar -1.2 22:13:56 10° WNW 22:15:38 20° NNW 22:15:38 20° NNW visible
27 Mar -1.9 21:22:36 10° WNW 21:25:25 25° N 21:26:42 20° NNE visible
28 Mar -2.1 20:31:12 10° WNW 20:34:09 29° NNW 20:37:05 10° NE visible
28 Mar -1.5 22:08:29 10° NW 22:10:25 23° NNW 22:10:25 23° NNW visible
29 Mar -1.9 21:17:16 10° NW 21:20:03 24° N 21:21:21 19° NE visible
29 Mar -0.3 22:53:55 10° NW 22:54:05 11° NW 22:54:05 11° NW visible
30 Mar -1.9 20:25:56 10° WNW 20:28:43 24° N 20:31:31 10° NE visible
30 Mar -2.0 22:02:49 10° NW 22:05:00 29° NNW 22:05:00 29° NNW visible
31 Mar -2.3 21:11:41 10° NW 21:14:36 28° NNE 21:15:53 21° NE visible
31 Mar -0.5 22:48:09 10° WNW 22:48:36 13° WNW 22:48:36 13° WNW visible
